This demonstration page uses our WeatherBlox Daily Observations layout. Learn more.

Left ArrowRight Arrow

Hourly Observations for August 30, 2021

Temp ( °F °C ) Dew Point ( °F °C ) Humidity (%) Winds ( mph kmh ) Pressure ( in mb ) Visibility ( mi km ) Precip ( " mm )
12:53 am 00:53 Cloudy with Haze 74 23.3 48 8.9 40 40 NNW 5 7 29.70 1006 6 10 0.00 0.00
1:53 am 01:53 Cloudy with Haze 72 22.2 47 8.3 41 41 Calm 29.69 1006 6 10 0.00 0.00
2:53 am 02:53 Cloudy with Haze 74 23.3 47 8.3 38 38 Calm 29.69 1005 6 10 0.00 0.00
3:53 am 03:53 Cloudy with Haze 68 20 47 8.3 47 47 Calm 29.69 1005 6 10 0.00 0.00
4:53 am 04:53 Cloudy with Haze 68 20 48 8.9 49 49 Calm 29.69 1006 5 8 0.00 0.00
5:53 am 05:53 Cloudy with Haze 66 18.9 47 8.3 50 50 N 3 6 29.70 1006 6 10 0.00 0.00
6:04 am 06:04 Cloudy with Haze 64 17.8 46 7.8 52 52 Calm 29.72 1007 6 10 0.00 0.00
6:32 am 06:32 Cloudy with Haze 66 18.9 47 8.3 50 50 NNE 3 6 29.72 1006 4 6 0.00 0.00
6:44 am 06:44 Cloudy with Haze 64 17.8 46 7.8 52 52 Calm 29.72 1007 4 6 0.00 0.00
6:53 am 06:53 Cloudy with Haze 63 17.2 46 7.8 54 54 ENE 3 6 29.72 1006 4 6 0.00 0.00
7:53 am 07:53 Cloudy with Haze 67 19.4 47 8.3 49 49 Calm 29.72 1007 4 6 0.00 0.00
8:53 am 08:53 Cloudy with Haze 75 23.9 47 8.3 37 37 Calm 29.72 1006 4 6 0.00 0.00
9:38 am 09:38 Mostly Cloudy with Haze 80 26.7 45 7.2 29 29 Calm 29.71 1006 3 5 0.00 0.00
9:53 am 09:53 Mostly Cloudy with Haze 82 27.8 46 7.8 28 28 Calm 29.71 1006 3 5 0.00 0.00
10:18 am 10:18 Cloudy with Haze 84 28.9 45 7.2 25 25 N 3 6 29.70 1006 3 5 0.00 0.00
10:28 am 10:28 Cloudy with Haze 85 29.4 45 7.2 25 25 Calm 29.70 1006 3 5 0.00 0.00
10:44 am 10:44 Cloudy with Haze 87 30.6 44 6.7 22 22 Calm 29.70 1006 3 4 0.00 0.00
10:53 am 10:53 Cloudy with Haze 88 31.1 44 6.7 22 22 Calm 29.70 1006 2 3 0.00 0.00
11:53 am 11:53 Cloudy with Haze 91 32.8 44 6.7 20 20 Calm 29.69 1005 2 3 0.00 0.00
12:37 pm 12:37 Cloudy with Haze 95 35 43 6.1 17 17 VRB 5 7 29.65 1004 2 2 0.00 0.00
12:53 pm 12:53 Cloudy with Haze 94 34.4 40 4.4 15 15 Calm 29.67 1005 2 3 0.00 0.00
1:03 pm 13:03 Cloudy with Haze 95 35 40 4.4 15 15 S 5 7 29.65 1004 2 3 0.00 0.00
1:12 pm 13:12 Cloudy with Haze 95 35 40 4.4 15 15 WSW 3 6 29.64 1004 2 3 0.00 0.00
1:53 pm 13:53 Cloudy with Haze 97 36.1 42 5.6 15 15 WSW 6 9 29.65 1004 2 3 0.00 0.00
2:01 pm 14:01 Cloudy with Haze 97 36.1 41 5 14 14 SSE 7 11 29.62 1003 2 3 0.00 0.00
2:20 pm 14:20 Cloudy with Haze 99 37.2 40 4.4 13 13 undefined N/A 29.62 1003 3 5 0.00 0.00
2:53 pm 14:53 Cloudy with Haze 99 37.2 42 5.6 14 14 VRB 7 11 29.62 1003 3 5 0.00 0.00
3:53 pm 15:53 Cloudy with Haze 100 37.8 40 4.4 13 13 SE 8 13 29.60 1002 5 8 0.00 0.00
4:05 pm 16:05 Cloudy with Haze 100 37.8 40 4.4 13 13 ESE 5 7 29.58 1002 5 8 0.00 0.00
4:53 pm 16:53 Cloudy with Haze 100 37.8 38 3.3 12 12 SE 8 13 29.58 1002 6 10 0.00 0.00
5:53 pm 17:53 Mostly Cloudy with Smoke 100 37.8 38 3.3 12 12 SSE 9 15 29.57 1001 7 11 0.00 0.00
6:53 pm 18:53 Partly Cloudy with Smoke 96 35.6 42 5.6 15 15 SSE 7 11 29.57 1001 8 13 0.00 0.00
7:53 pm 19:53 Mostly Clear with Smoke 89 31.7 46 7.8 23 23 SSE 3 6 29.58 1002 7 11 0.00 0.00
8:53 pm 20:53 Partly Cloudy with Smoke 86 30 45 7.2 24 24 Calm 29.60 1003 8 13 0.00 0.00
9:53 pm 21:53 Cloudy with Smoke 83 28.3 44 6.7 25 25 NNE 6 9 29.61 1003 8 13 0.00 0.00
10:53 pm 22:53 Cloudy with Haze 86 30 38 3.3 18 18 WNW 6 9 29.61 1003 4 6 0.00 0.00
11:53 pm 23:53 Cloudy with Haze 77 25 41 5 28 28 N 6 9 29.62 1003 6 10 0.00 0.00

Powered by AerisWeather